EHI
0 0 0 0 0 0 0 0 0 0 0 0 0 0 0 0 0 0 0 0 0 0 0 0 0 0 0 0 0 0 0 0 0 0 0 0 0 0 0 0 0 0 0 0
0 0 0 0 0 0 0 0 0 0 0 0 0 0 0 0 0 0 0 0 0 0 0 0 0 0 0 0 0 0 0 0 0 0 0 0 0 0 0 0 0 0 0 0
0 0 0 0 0 0 0 0 0 0 0 0 0 0 0 0 0 0 0 0 0 0 0 0 0 0 0 0 0 0 0 0 0 0 0 0 0 0 0 0 0 0 0 0
0 0 0 0 0 0 0 0 0 0 0 0 0 0 0 0 0 0 0 0 0 0 0 0 0 0 0 0 0 0 0 0 0 0 0 0 0 0 0 0 0 0 0 0
0 0 0 0 0 0 0 0 0 0 0 0 0 0 0 0 0 0 0 0 0 0 0 0 0 0 0 0 0 0 0 0 0 0 0 0 0 0 0 0 0 0 0 0
0 0 0 0 0 0 0 0 0 0 0 0 0 0 0 0 0 0 0 0 0 0 0 0 0 0 0 0 0 0 0 0 0 0 0 0 0 0 0 0 0 0 0 0
0 0 0 0 0 0 0 0 0 0 0 0 0 0 0 0 0 0 0 0 0 0 0 0 0 0 0 0 0 0 0 0 0 0 0 0 0 0 0 0 0 0 0 0
0 0 0 0 0 0 0 0 0 0 0 0 0 0 0 0 0 0 0 0 0 0 0 0 0 0 0 0 0 0 0 0 0 0 0 0 0 0 0 0 0 0 0 0
0 0 0 0 0 0 0 0 0 0 0 0 0 0 0 0 0 0 0 0 0 0 0 0 0 0 0 0 0 0 0 0 0 0 0 0 0 0 0 0 0 0 0 0
0 0 0 0 0 0 0 0 0 0 0 0 0 0 0 0 0 0 0 0 0 0 0 0 0 0 0 0 0 0 0 0 0 0 0 0 0 0 0 0 0 0 0 0
0 0 0 0 0 0 0 0 0 0 0 0 0 0 0 0 0 0 0 0 0 0 0 0 0 0 0 0 0 0 0 0 0 0 0 0 0 0 0 0 0 0 0 0
0 0 0 0 0 0 0 0 0 0 0 0 0 0 0 0 0 0 0 0 0 0 0 0 0 0 0 0 0 0 0 0 0 0 0 0 0 0 0 0 0 0 0 0
0 0 0 0 0 0 0 0 0 0 0 0 0 0 0 0 0 0 0 0 0 0 0 0 0 0 0 0 0 0 0 0 0 0 0 0 0 0 0 0 0 0 0 0
0 0 0 0 0 0 0 0 0 0 0 0 0 0 0 0 0 0 0 0 0 0 0 0 0 0 0 0 0 0 0 0 0 0 0 0 0 0 0 0 0 0 0 0
0 0 0 0 0 0 0 0 0 0 0 0 0 0 0 0 0 0 0 0 0 0 0 0 0 0 0 0 0 0 0 0 0 0 0 0 0 0 0 0 0 0 0 0
0 0 0 0 0 0 0 0 0 0 0 0 0 0 0 0 0 0 0 0 0 0 0 0 0 0 0 0 0 0 0 0 0 0 0 0 0 0 0 0 0 0 0 0
0 0 0 0 0 0 0 0 0 0 0 0 0 0 0 0 0 0 0 0 0 0 0 0 0 0 0 0 0 0 0 0 0 0 0 0 0 0 0 0 0 0 0 0
0 0 0 0 0 0 0 0 0 0 0 0 0 0 0 0 0 0 0 0 0 0 0 0 0 0 0 0 0 0 0 0 0 0 0 0 0 0 0 0 0 0 0 0
0 0 0 0 0 0 0 0 0 0 0 0 0 0 0 0 0 0 0 0 0 0 0 0 0 0 0 0 0 0 0 0 0 0 0 0 0 0 0 0 0 0 0 0
0 0 0 0 0 0 0 0 0 0 0 0 0 0 0 0 0 0 0 0 0 0 0 0 0 0 0 0 0 0 0 0 0 0 0 0 0 0 0 0 0 0 0 0
0 0 0 0 0 0 0 0 0 0 0 0 0 0 0 0 0 0 0 0 0 0 0 0 0 0 0 0 0 0 0 0 0 0 0 0 0 0 0 0 0 0 0 0
0 0 0 0 0 0 0 0 0 0 0 0 0 0 0 0 0 0 0 0 0 0 0 0 0 0 0 0 0 0 0 0 0 0 0 0 0 0 0 0 0 0 0 0
0 0 0 0 0 0 0 0 0 0 0 0 0 0 0 0 0 0 0 0 0 0 0 0 0 0 0 0 0 0 0 0 0 0 0 0 0 0 0 0 0 0 0 0
0 0 0 0 0 0 0 0 0 0 0 0 0 0 0 0 0 0 0 0 0 0 0 0 0 0 0 0 0 0 0 0 0 0 0 0 0 0 0 0 0 0 0 0
0 0 0 0 0 0 0 0 0 0 0 0 0 0 0 0 0 0 0 0 0 0 0 0 0 0 0 0 0 0 0 0 0 0 0 0 0 0 0 0 0 0 0 0
0 0 0 0 0 0 0 0 0 0 0 0 0 0 0 0 0 0 0 0 0 0 0 0 0 0 0 0 0 0 0 0 0 0 0 0 0 0 0 0 0 0 0 0
0 0 0 0 0 0 0 0 0 0 0 0 0 0 0 0 0 0 0 0 0 0 0 0 0 0 0 0 0 0 0 0 0 0 0 0 0 0 0 0 0 0 0 0
Wind_Speed
6 4 4 6 9 8 9 10 10 10 10 11 7 3 1 1 2 3 3 4 4 4 5 6 6 6 6 7 7 6 6 7 8 9 8 8 9 9 9 9 10 10 10 11
3 4 5 9 13 11 11 9 10 10 12 4 1 2 2 2 2 2 3 4 5 6 6 7 7 7 7 7 8 7 7 8 9 9 9 9 9 9 9 10 10 10 10 11
4 3 6 11 10 8 6 6 7 8 5 1 2 1 1 1 1 2 4 6 6 7 7 7 7 7 7 8 8 8 8 9 9 9 9 10 10 10 10 10 10 10 10 11
2 1 9 10 3 3 3 2 1 3 2 2 1 2 1 2 0 3 5 6 7 7 7 7 7 7 7 8 8 8 9 9 9 9 10 10 10 10 11 10 10 10 11 11
4 4 10 10 5 3 4 1 1 4 2 0 2 2 2 2 1 4 5 6 6 6 7 7 8 7 8 8 8 9 9 10 10 10 11 11 11 11 10 10 10 10 10 11
5 5 9 8 3 0 3 2 1 3 2 0 2 3 5 4 5 6 7 6 6 7 7 7 8 7 8 9 9 10 11 11 10 10 11 12 12 12 10 10 11 11 11 11
6 6 11 8 4 2 3 5 2 2 1 1 2 5 6 6 6 7 7 8 7 7 7 7 8 8 9 10 11 11 11 11 11 11 11 12 12 10 10 11 11 11 12 11
7 7 12 4 3 4 4 2 2 1 2 3 5 7 7 6 7 7 7 7 7 7 8 8 7 8 11 12 12 12 11 12 12 11 11 10 11 11 10 11 12 11 11 11
11 9 3 2 4 3 4 3 2 2 4 4 5 6 6 6 6 7 7 7 7 8 9 9 8 8 11 14 13 13 13 13 12 12 10 10 11 12 11 9 9 10 10 10
4 4 2 4 4 3 2 3 4 4 4 3 4 5 6 6 6 6 7 7 7 8 10 11 10 9 10 13 12 13 14 13 12 12 12 10 9 9 9 9 10 10 10 10
3 2 3 3 3 4 4 3 3 3 3 2 3 4 5 5 6 7 7 7 7 8 11 13 13 12 11 11 11 12 13 13 12 10 11 11 9 9 11 9 12 14 10 10
6 4 4 4 3 2 2 1 2 2 2 3 2 4 5 6 6 7 8 8 9 10 11 13 13 13 12 10 10 12 13 12 10 10 10 10 10 11 15 18 23 24 22 20
3 2 3 3 2 1 1 2 2 2 3 4 5 5 5 6 7 8 9 10 11 12 13 13 13 13 12 11 10 11 13 13 11 10 10 10 11 12 13 14 18 20 22 23
2 2 2 2 2 2 2 2 2 3 4 5 5 6 7 8 8 10 11 11 12 12 13 13 13 14 13 11 11 12 12 15 14 10 10 11 11 11 11 12 13 10 13 19
2 2 3 2 1 2 1 2 3 5 6 6 6 7 8 10 11 12 12 11 12 12 13 12 13 14 12 11 12 13 12 10 10 10 10 10 10 10 10 11 11 11 10 11
2 1 0 1 2 3 3 4 5 6 7 7 8 9 10 10 12 12 11 10 11 14 14 13 14 14 13 12 12 11 10 19 18 12 10 11 10 10 10 10 10 10 10 10
2 2 1 2 3 4 4 5 6 8 8 9 11 11 11 11 12 12 11 9 10 11 12 13 14 13 12 12 11 10 10 12 20 14 10 11 10 10 10 10 10 10 10 11
3 2 1 2 4 5 7 7 7 8 9 11 11 10 11 11 13 14 13 11 10 10 11 12 12 12 11 11 10 9 10 10 10 11 11 10 11 10 10 10 11 12 10 10
1 1 2 4 5 6 7 8 9 9 9 10 11 12 11 11 11 13 12 11 12 14 11 9 18 14 11 13 16 9 10 12 12 11 10 14 13 9 9 9 10 10 10 9
2 3 4 6 7 7 8 9 10 10 10 10 10 12 13 12 11 11 11 10 9 10 11 13 12 9 10 12 18 10 10 12 12 11 10 10 10 10 9 9 10 10 9 8
5 6 7 8 9 9 9 10 10 12 11 10 10 12 14 13 11 9 9 11 9 9 10 17 11 8 10 13 17 9 10 11 11 10 10 10 10 10 9 9 9 9 8 8
6 7 8 9 9 10 9 8 9 11 12 12 12 12 12 13 11 9 9 9 10 14 11 7 7 13 19 20 9 9 10 11 10 10 9 9 10 10 10 10 9 8 8 7
7 8 9 9 10 11 11 10 10 10 12 12 12 12 12 11 9 8 10 7 7 14 11 7 14 23 27 13 8 9 10 11 10 10 10 9 9 9 9 10 8 8 7 6
8 8 9 9 9 9 12 12 10 9 11 11 11 11 11 9 8 7 8 13 17 18 9 13 22 25 23 8 8 9 10 10 10 10 9 9 9 8 8 8 8 7 6 7
8 8 9 9 9 9 10 11 10 10 10 9 10 10 8 7 8 8 7 8 14 16 9 13 21 23 13 8 9 9 9 10 11 11 9 9 9 8 8 8 7 7 6 5
8 8 8 9 9 8 8 8 8 8 8 9 8 7 7 6 7 8 7 8 11 15 11 8 9 12 8 9 9 10 10 11 11 9 9 9 9 9 8 7 8 6 5 5
8 7 7 7 7 7 7 7 9 9 8 9 10 8 7 7 7 7 8 7 8 8 7 7 7 8 8 9 9 9 9 9 9 9 9 8 8 8 7 7 6 5 4 4
Wind_Direction
241 248 238 241 249 238 220 212 227 244 247 266 270 244 222 48 37 37 17 353 334 312 299 298 299 300 299 298 300 302 304 302 296 294 294 294 293 290 287 283 279 276 276 274
274 276 282 274 260 246 239 228 233 256 270 275 156 116 83 62 52 24 336 319 312 307 305 301 296 294 296 297 297 300 298 295 294 297 298 295 292 290 287 284 281 278 275 275
261 312 345 278 252 224 220 219 206 225 237 127 88 74 97 126 54 320 304 300 301 299 293 290 287 287 291 290 295 298 295 294 297 297 295 292 290 290 287 286 283 280 277 275
191 57 247 245 242 209 211 255 198 140 114 104 187 262 227 163 56 305 296 294 293 291 290 288 287 290 291 294 298 299 296 295 294 293 290 290 290 288 288 285 283 282 281 277
156 220 275 287 273 198 168 188 87 122 115 10 289 322 288 223 279 279 281 282 282 283 286 290 294 298 303 304 304 302 299 295 293 291 290 292 291 289 288 288 288 283 281 281
156 194 242 251 257 185 95 219 154 126 124 331 35 353 279 281 303 298 296 295 298 299 301 303 303 306 307 306 305 301 297 294 292 289 288 289 289 289 288 286 288 287 284 280
175 213 258 255 258 138 188 232 165 141 160 204 215 230 255 285 288 284 288 292 296 300 300 296 299 307 305 303 300 297 296 295 293 289 287 288 288 287 289 289 289 286 285 284
164 199 249 250 141 160 188 140 143 174 225 246 250 263 275 281 282 291 295 299 304 304 301 299 301 304 303 302 300 299 298 297 296 293 291 294 290 292 289 289 291 290 289 289
189 207 221 96 119 123 130 147 195 230 252 258 265 273 282 286 292 296 297 299 301 300 301 301 298 294 296 300 302 303 301 300 298 296 291 288 289 293 294 290 289 291 291 291
216 245 150 117 118 128 162 192 220 234 248 251 265 279 289 292 296 300 299 300 301 303 304 305 304 295 287 295 301 301 302 303 300 300 299 292 286 287 289 290 289 290 291 292
231 228 123 158 180 197 203 204 209 230 236 253 278 291 292 295 295 295 296 296 297 298 300 302 304 302 298 297 301 302 302 301 300 297 296 297 291 286 289 279 282 290 290 289
223 207 180 215 213 193 193 232 245 274 303 310 297 289 292 290 288 291 297 300 301 299 298 300 303 302 303 301 299 301 305 304 301 299 297 296 297 296 291 290 295 296 295 294
194 178 175 197 201 207 242 257 264 278 293 301 298 287 289 289 289 294 297 299 298 298 298 299 301 302 305 303 300 297 298 301 301 298 298 299 298 299 301 301 297 296 297 298
161 144 170 200 229 265 272 280 291 296 289 280 279 285 287 287 289 292 293 293 293 294 296 297 300 302 304 304 301 297 296 299 301 297 296 295 295 294 296 300 304 300 298 299
188 175 199 229 276 313 324 327 319 306 297 291 283 283 284 287 290 290 291 292 293 293 294 297 300 302 304 302 299 298 298 297 296 294 293 293 293 293 293 293 295 297 298 298
234 231 158 5 334 328 329 320 303 292 290 288 290 287 283 281 283 286 288 289 292 297 299 299 298 298 301 300 298 298 296 301 307 302 297 296 294 293 294 294 295 295 296 297
204 235 265 312 310 306 295 283 273 275 280 282 283 285 287 289 290 290 290 286 280 282 288 291 292 295 296 295 295 298 297 299 303 303 295 294 294 294 293 294 295 295 294 295
178 188 207 245 265 281 287 284 277 276 275 277 283 286 287 288 291 293 295 297 295 289 284 282 287 297 294 296 297 296 296 296 295 295 296 297 297 295 295 295 295 297 298 300
87 296 285 278 271 269 272 277 278 275 276 280 283 284 284 283 282 285 292 297 300 301 297 288 304 309 299 299 306 298 297 298 300 299 299 301 302 296 296 297 299 299 298 298
304 292 289 285 280 272 273 277 280 282 281 280 281 284 288 286 283 286 289 285 278 278 288 297 301 295 297 299 306 301 301 303 304 305 303 300 300 301 300 299 298 297 297 298
293 289 287 284 282 279 276 278 282 285 286 283 279 282 286 288 286 284 287 292 287 280 289 302 307 301 302 307 311 307 306 306 307 305 304 304 304 302 301 300 300 300 301 302
280 279 280 280 282 284 283 278 277 281 285 285 281 280 284 288 288 282 271 273 284 298 304 293 295 305 314 318 311 307 307 307 306 303 302 302 302 303 302 302 302 302 302 303
273 274 276 278 279 282 286 284 278 278 281 282 283 283 283 283 285 286 291 284 285 302 308 292 305 315 321 322 310 308 307 305 304 303 302 302 302 301 302 303 303 304 305 305
274 275 275 277 280 283 286 286 281 278 276 278 277 275 277 283 282 269 267 290 303 308 305 303 314 319 324 319 307 305 305 305 303 302 303 304 302 302 303 304 304 304 303 302
273 275 277 280 282 281 281 286 289 286 282 281 278 275 270 264 269 281 281 283 296 307 301 305 314 319 320 306 305 304 304 303 305 309 307 306 305 305 303 304 304 303 303 301
273 275 274 271 271 277 281 283 285 286 287 289 289 284 279 275 272 276 280 282 285 298 302 297 300 308 308 305 304 305 305 306 307 306 302 304 305 304 303 304 305 304 303 302
276 274 277 280 278 270 271 276 280 283 283 285 289 289 285 284 282 281 283 286 289 291 291 292 296 301 303 304 306 305 304 303 303 302 302 303 303 303 302 302 302 302 302 303